SM6VFJ-1 Weather Reports


Display with metric or nautical units.
time (UTC)temp
F
wind
direction
speed
MPH
gust
MPH
rain 1hr
in
rain 24hr
in
rain mn
in
humidity
%
barometer
mb
20260506024544 29 178 0.0 0.0 0.00 0.00 0.00 83 1013.1
20260506023040 30 177 0.0 0.0 0.00 0.00 0.00 82 1013.0
20260506021547 30 177 0.0 0.0 0.00 0.00 0.00 82 1012.9
20260506020036 30 178 0.0 1.0 0.00 0.00 0.00 81 1012.8
20260506014534 30 178 0.0 0.0 0.00 0.00 0.00 80 1012.8
20260506013034 31 178 0.0 1.0 0.00 0.00 0.00 78 1012.8
20260506011558 31 178 0.0 1.0 0.00 0.00 0.00 77 1012.7
20260506010030 31 181 0.0 1.0 0.00 0.00 0.00 76 1012.6
20260506004539 31 220 0.0 0.0 0.00 0.00 0.00 75 1012.5
20260506003030 31 220 0.0 0.0 0.00 0.00 0.00 73 1012.5
20260506001530 31 220 0.0 0.0 0.00 0.00 0.00 73 1012.5
20260506000025 31 220 0.0 0.0 0.00 0.00 0.00 74 1012.4
20260505234522 31 220 0.0 0.0 0.00 0.00 0.00 72 1012.5
20260505233030 32 220 0.0 0.0 0.00 0.00 0.00 71 1012.5
20260505231522 32 220 0.0 0.0 0.00 0.00 0.00 72 1012.4
20260505230018 32 220 0.0 0.0 0.00 0.00 0.00 71 1012.4
20260505224517 32 220 0.0 0.0 0.00 0.00 0.00 70 1012.4
20260505223018 32 220 0.0 0.0 0.00 0.00 0.00 69 1012.4
20260505221513 33 220 0.0 0.0 0.00 0.00 0.00 68 1012.4
20260505220022 34 220 0.0 0.0 0.00 0.00 0.00 66 1012.4
20260505214514 34 220 0.0 0.0 0.00 0.00 0.00 65 1012.3
20260505213009 34 220 0.0 0.0 0.00 0.00 0.00 65 1012.3
20260505211505 35 220 0.0 0.0 0.00 0.00 0.00 64 1012.1
20260505210004 35 220 0.0 0.0 0.00 0.00 0.00 63 1012.0
20260505204612 36 220 0.0 0.0 0.00 0.00 0.00 61 1012.0
20260505203107 36 220 0.0 0.0 0.00 0.00 0.00 58 1011.8
20260505201556 37 220 0.0 0.0 0.00 0.00 0.00 57 1011.7
20260505200054 38 220 0.0 0.0 0.00 0.00 0.00 55 1011.6
20260505194558 40 220 0.0 2.0 0.00 0.00 0.00 53 1011.5
20260505193047 41 220 0.0 3.0 0.00 0.00 0.00 51 1011.3
20260505191548 44 224 0.0 1.0 0.00 0.00 0.00 46 1011.3
20260505190046 45 224 0.0 2.0 0.00 0.00 0.00 40 1011.3
20260505184551 47 272 0.0 0.0 0.00 0.00 0.00 39 1011.2
20260505183050 48 277 0.0 0.0 0.00 0.00 0.00 37 1011.1
20260505181542 49 303 1.0 6.0 0.00 0.00 0.00 35 1010.9
20260505180040 49 297 0.0 6.0 0.00 0.00 0.00 35 1010.9
20260505174541 50 10 2.0 11.0 0.00 0.00 0.00 35 1010.7
20260505173038 50 330 6.0 11.0 0.00 0.00 0.00 32 1010.6
20260505171536 50 293 3.0 11.0 0.00 0.00 0.00 33 1010.4
20260505170035 50 336 2.0 12.0 0.00 0.00 0.00 36 1010.3
20260505164552 51 303 5.0 11.0 0.00 0.00 0.00 35 1010.3
20260505163036 51 279 5.0 11.0 0.00 0.00 0.00 31 1010.2
20260505161544 51 310 3.0 10.0 0.00 0.00 0.00 33 1010.0
20260505153031 52 270 1.0 11.0 0.00 0.00 0.00 33 1010.0
20260505151531 51 296 3.0 15.0 0.00 0.00 0.00 33 1009.9
20260505124526 49 287 6.0 13.0 0.00 0.00 0.00 38 1010.2
20260505123016 50 313 2.0 12.0 0.00 0.00 0.00 39 1010.2
20260505121516 49 284 1.0 14.0 0.00 0.00 0.00 40 1010.3
20260505120115 49 309 3.0 13.0 0.00 0.00 0.00 37 1010.3
20260505114512 48 320 1.0 16.0 0.00 0.00 0.00 39 1010.2
20260505113012 48 269 4.0 13.0 0.00 0.00 0.00 38 1010.2
20260505111511 48 298 3.0 12.0 0.00 0.00 0.00 39 1010.1
20260505101503 47 324 2.0 9.0 0.00 0.00 0.00 48 1009.8
20260505100104 46 319 2.0 13.0 0.00 0.00 0.00 44 1009.7
20260505094558 47 297 1.0 10.0 0.00 0.00 0.00 45 1009.8
20260505093104 46 301 2.0 11.0 0.00 0.00 0.00 43 1009.7
20260505091552 46 343 2.0 12.0 0.00 0.00 0.00 46 1009.7
20260505090049 46 319 2.0 10.0 0.00 0.00 0.00 48 1009.7
20260505084552 45 315 2.0 12.0 0.00 0.00 0.00 50 1009.7
20260505083049 45 245 2.0 11.0 0.00 0.00 0.00 50 1009.6
20260505081546 45 280 2.0 12.0 0.00 0.00 0.00 48 1009.4
20260505080039 44 311 2.0 10.0 0.00 0.00 0.00 54 1009.3
20260505074532 44 265 3.0 12.0 0.00 0.00 0.00 56 1009.3
20260505073032 44 321 3.0 9.0 0.00 0.00 0.00 62 1009.2
20260505071525 43 305 1.0 9.0 0.00 0.00 0.00 62 1009.0
20260505070023 43 271 3.0 11.0 0.00 0.00 0.00 63 1009.0
20260505064519 43 347 3.0 9.0 0.00 0.00 0.00 66 1008.8
20260505063013 43 277 2.0 11.0 0.00 0.00 0.00 65 1008.9
20260505061510 42 295 2.0 10.0 0.00 0.00 0.00 66 1008.8
20260505060005 42 316 3.0 11.0 0.00 0.00 0.00 67 1008.5
20260505054600 42 274 2.0 8.0 0.00 0.00 0.00 68 1008.5
20260505053114 42 282 2.0 9.0 0.00 0.00 0.00 68 1008.3
20260505051551 42 266 1.0 7.0 0.00 0.00 0.00 71 1008.3
20260505041543 41 291 1.0 5.0 0.00 0.00 0.00 81 1007.8
20260505040037 41 257 0.0 4.0 0.00 0.00 0.00 84 1007.6
20260505034533 42 251 0.0 4.0 0.00 0.00 0.00 87 1007.5
20260505033030 42 255 1.0 6.0 0.00 0.00 0.00 87 1007.5
20260505031528 42 252 0.0 8.0 0.00 0.00 0.00 88 1007.2
20260505030026 43 290 1.0 8.0 0.00 0.00 0.00 87 1007.1